Location: ?ejeti?ky
(50.4060°N, 14.9016°E)
Time: 01:41:36
(UTC+00:00)

N. Korean satellite - Pass Details

Date: 09 December 2021
Orbit: 446 x 492 km, 97.3° (Epoch: 16 January)

Event Time Altitude Azimuth Distance (km) Brightness Sun altitude
Rises 16:05:49 0° 196° (SSW) 2,510 10.8 -10.4°
Reaches altitude 10° 16:08:10 10° 211° (SSW) 1,628 10.1 -10.7°
Maximum altitude 16:11:01 23° 266° (W) 1,032 9.2 -11.1°
Drops below altitude 10° 16:13:51 10° 321° (NW) 1,618 9.4 -11.5°
Sets 16:16:12 0° 336° (NNW) 2,490 10.2 -11.9°
